Location: Fuglau
(48.6333°N, 15.5500°E)
Time: 20:25:08
(UTC+00:00)

Envisat - Visible Passes

Search period start: 05 March 2021 00:00
Search period end: 15 March 2021 00:00
Orbit: 764 x 766 km, 98.1° (Epoch: 05 March)

Date Brightness Start Highest point End Pass type
(mag) Time Alt. Az. Time Alt. Az. Time Alt. Az.
05 Mar 5.3 03:46:09 10° NE 03:50:22 25° E 03:54:32 10° SSE visible
06 Mar 6.2 03:11:00 10° ENE 03:13:05 12° E 03:15:08 10° ESE visible
06 Mar 3.1 04:47:46 10° NNE 04:52:53 84° E 04:57:58 10° SSW visible
07 Mar 4.4 04:11:08 10° NNE 04:15:57 41° E 04:20:44 10° SSE visible
08 Mar 5.7 03:35:02 10° NE 03:38:49 21° E 03:42:35 10° SE visible
09 Mar 3.4 04:36:21 10° NNE 04:41:27 69° ESE 04:46:29 10° S visible
10 Mar 4.9 03:59:50 10° NNE 04:04:27 33° E 04:09:02 10° SSE visible
11 Mar 5.9 03:24:01 10° NE 03:27:15 17° E 03:30:28 10° SE visible
12 Mar 3.9 04:24:58 10° NNE 04:29:59 55° E 04:34:58 10° S visible
13 Mar 5.3 03:48:37 10° NE 03:52:56 27° E 03:57:13 10° SSE visible
14 Mar 6.1 03:13:13 10° ENE 03:15:40 13° E 03:18:06 10° ESE visible
